KIAD

Washington/Dulles

Airport
ICAO code
KIAD
Summary
ICAO Region
NAM
ICAO Territory
Location

Dulles, Virginia,

Elevation
312 ft
Coordinates
38° 57' 3" N , 77° 26' 51" W
KCC
Airport LOS
Parallel Runway Operation
Metar
Observation
KIAD 062152Z 35013G20KT 10SM BKN044 08/M02 A3017 RMK AO2 SLP217 T00831017
Station
Washington DC, Washington-Dulles International Airport
Date/Time
2023-02-06 21:52:00
Wind direction
350°
Wind speed
13 kts
Lowest cloud amount
broken clouds
Temperature
8.3°C
Dew point
-1.7°C
Humidity
49%
Weather condition
n/a

Description

Washington Dulles International Airport is a public airport located 41.6 km west of the central business district of Washington, D.C., in Dulles, Virginia. It serves the greater Washington, D.C., metropolitan area.

Climatology

Humid “subtropical” climate (Köppen climate classification Cfa) - characterized by hot, humid summers and cool winters. Significant amounts of precipitation occur in all seasons in most areas. Winter rainfall (and sometimes snowfall) is associated with large storms that the westerlies steer from west to east. Most summer rainfall occurs during thunderstorms and occasional tropical storms (hurricanes).

Airport map

Aerial View

SKYbrary Partners:

Safety knowledge contributed by: